Regional Weather Roundup
Issued by NWS Jackson, KY

Home | Current Version | Previous Version | Graphics & Text | Print | Product List | Glossary On
Versions: 1 2 3 4 5 6 7 8 9 10 11 12 13 14 15 16 17 18 19 20 21 22 23 24 25 26 27
000
ASUS43 KJKL 290910
RWRJKL

EAST KENTUCKY HOURLY WEATHER ROUNDUP
NATIONAL WEATHER SERVICE JACKSON KY
500 AM EDT MON AUG 29 2016

NOTE: "FAIR" INDICATES FEW OR NO CLOUDS BELOW 12,000 FEET WITH
NO SIGNIFICANT WEATHER AND/OR OBSTRUCTIONS TO VISIBILITY.

* THESE REPORTS ARE NOT UNDER NWS QUALITY CONTROL AND MAY NOT
  REPORT WEATHER SUCH AS PRECIPITATION AND FOG.

KYZ079-080-083-085-087-088-110-112-115-119-120-291000
...EASTERN KENTUCKY...

CITY           SKY/WX    TMP DP  RH WIND       PRES   REMARKS
JACKSON        PTCLDY    69  67  93 CALM      30.17F
LONDON         PTCLDY    69  66  90 CALM      30.16F
SOMERSET*      CLOUDY    66  66 100 CALM      30.16F
MONTICELLO*    PTCLDY   N/A N/A N/A CALM      30.16F
WILLIAMSBURG*  MOSUNNY   68  68 100 SE3       30.16S
MIDDLESBORO*   FOG       68  68 100 CALM      30.17F VSB 1/2
HARLAN APT*    CLOUDY    70  68  94 CALM      30.18S
PIKE CO APT*     N/A     70  69  96 CALM      30.18S
BIG SANDY APT* SUNNY     70  70  99 CALM      30.17S
MOREHEAD APT*  MOSUNNY   68  66  94 NW3       30.20S FOG
$$

KYZ035-036-041-042-044-050-067-078-099-291000
...CENTRAL KENTUCKY...

CITY           SKY/WX    TMP DP  RH WIND       PRES   REMARKS
MT STERLING*   CLEAR     68  68 100 CALM      30.20R
FLEMING/MASON* MOCLDY    69  68  96 CALM      30.20S
DANVILLE*      MOCLDY    66  64  94 CALM      30.19R
LEXINGTON      CLOUDY    70  67  90 CALM      30.18S
FRANKFORT      MOCLDY    70  68  93 N5        30.17R FOG
LOUISVILLE     PTCLDY    73  69  87 NE5       30.16R
LEBANON*         N/A     68  68 100 CALM      30.17S
GLASGOW*       CLEAR     69  69 100 CALM      30.14S
BOWLING GREEN  CLEAR     71  69  93 CALM      30.13F
$$

KYZ091>093-OHZ055-061-077-WVZ005-015-034-035-042-291000
...SOUTHERN OHIO/WEST VIRGINIA...

CITY           SKY/WX    TMP DP  RH WIND       PRES   REMARKS
COVINGTON      PTCLDY    70  69  97 N5        30.19S FOG
COLUMBUS       CLOUDY    71  68  90 N6        30.18S
DAYTON         PTCLDY    68  66  93 CALM      30.22R
WILMINGTON     CLOUDY    68  66  93 CALM      30.19S
HUNTINGTON     CLEAR     72  69  90 N5        30.16R
CHARLESTON     PTCLDY    71  69  93 CALM      30.16S
PINEVILLE*     CLOUDY    68  65  90 MISG      30.25S
BECKLEY        CLEAR     68  63  84 SE6       30.24F
BLUEFIELD      CLEAR     66  58  75 E3        30.27S
LOGAN CO APT*    N/A     70  68  94 CALM      30.17S
$$

VAZ002-007-008-TNZ017-027-036-066-071-291000
...SOUTHWEST VIRGINIA/EAST TENNESSEE...

CITY           SKY/WX    TMP DP  RH WIND       PRES   REMARKS
WISE*          MOCLDY    70  70 100 CALM      30.25F FOG
JONESVILLE*    PTSUNNY   66  66 100 CALM      30.20S FOG
ABINGDON*      CLEAR     69  65  86 E6        30.23S
BRISTOL        PTCLDY    67  65  93 CALM      30.19S
MORRISTOWN*    MOSUNNY   72  66  83 CALM      30.15S
SEVIERVILLE*   CLOUDY    66  66 100 CALM      30.14S VSB 1/4
KNOXVILLE      PTCLDY    71  67  87 CALM      30.13F
OAK RIDGE      CLEAR     71  68  90 CALM      30.16R
CROSSVILLE     CLOUDY    69  67  93 CALM      30.19S
NASHVILLE      CLEAR     72  68  87 NE5       30.12S
$$

...KEY TO REMARKS...
VSB - VISIBILITY IN MILES
WCI - WIND CHILL INDEX
HX  - HEAT INDEX

$$




USA.gov is the U.S. government's official web portal to all federal, state and local government web resources and services.